Weather History for Lexington, KY

Change the Weather History Date:

Saturday, December 22, 2012

  Actual Average Record
Temperature  
Mean Temperature 28 °F 34 °F  
Max Temperature 35 °F 42 °F 64 °F (1941)
Min Temperature 20 °F 27 °F -19 °F (1989)
Degree Days  
Heating Degree Days 37 31  
Month to date heating degree days 427 618  
Since 1 July heating degree days 1489 1505  
Cooling Degree Days 0 0  
Month to date cooling degree days 0 0  
Year to date cooling degree days 1359 1190  
Moisture  
Dew Point 20 °F    
Average Humidity 74    
Maximum Humidity 91    
Minimum Humidity 56    
Precipitation  
Precipitation 0.00 in 0.13 in 2.08 in (1921)
Month to date precipitation 5.47 2.84  
Year to date precipitation 41.54 44.08  
Snow  
Snow 0.00 in 0.10 in 4.20 in (1916)
Month to date snowfall 0.3 1.5  
Since 1 July snowfall 0.3 1.8  
Snow Depth 0.00 in    
Sea Level Pressure  
Sea Level Pressure 30.22 in    
Wind  
Wind Speed 8 mph (SW)    
Max Wind Speed 17 mph    
Max Gust Speed 24 mph    
Visibility 10 miles    
Events      
T = Trace of Precipitation, MM = Missing Value Source: NWS Daily Summary

Daily Weather History Graph

Daily Weather History Graph

Search for Another Location

Airport:

Trip Planner

Search our weather history database for the weather conditions in past years. The results will help you decide how hot, cold, wet, or windy it might be!

Date:

Astronomy

Dec. 22, 2012 Rise Set
Actual Time 7:51 AM EST 5:23 PM EST
Civil Twilight 7:22 AM EST 5:52 PM EST
Nautical Twilight 6:49 AM EST 6:25 PM EST
Astronomical Twilight 6:16 AM EST 6:57 PM EST
Moon 1:37 PM EST (12/22) 2:39 AM EST (12/22)
Length of Visible Light 10h 30m
Length of Day
9h 31m
Waxing Gibbous, 73% of the Moon is Illuminated
Dec 22
Waxing Gibbous
Dec 28
Full
Jan 4
Last Quarter
Jan 11
New
Jan 18
First Quarter

Hourly Weather History & Observations

Time (EST) Temp. Windchill Dew Point Humidity Pressure Visibility Wind Dir Wind Speed Gust Speed Precip Events Conditions
12:54 AM 26.1 °F 15.6 °F 19.9 °F 78% 30.17 in 10.0 mi West 11.5 mph - N/A   Overcast
1:32 AM 26.6 °F 15.7 °F 19.4 °F 74% 30.14 in 10.0 mi West 12.7 mph - N/A   Overcast
1:54 AM 26.1 °F 15.6 °F 19.9 °F 78% 30.19 in 10.0 mi West 11.5 mph - N/A   Overcast
2:38 AM 26.6 °F 16.2 °F 19.4 °F 74% 30.18 in 10.0 mi West 11.5 mph - N/A   Overcast
2:54 AM 25.0 °F 13.6 °F 19.0 °F 78% 30.21 in 10.0 mi West 12.7 mph - N/A   Overcast
3:54 AM 25.0 °F 13.6 °F 19.0 °F 78% 30.22 in 10.0 mi West 12.7 mph - N/A   Overcast
4:54 AM 25.0 °F 15.5 °F 19.0 °F 78% 30.24 in 10.0 mi WSW 9.2 mph - N/A   Overcast
5:54 AM 24.1 °F 16.0 °F 19.0 °F 81% 30.25 in 10.0 mi WSW 6.9 mph - N/A   Overcast
6:54 AM 21.0 °F 12.4 °F 18.0 °F 88% 30.27 in 10.0 mi West 6.9 mph - N/A   Mostly Cloudy
6:59 AM 21.2 °F 12.6 °F 17.6 °F 86% 30.23 in 10.0 mi WSW 6.9 mph - N/A   Scattered Clouds
7:54 AM 19.9 °F 13.4 °F 17.1 °F 89% 30.28 in 10.0 mi SW 4.6 mph - N/A   Clear
8:54 AM 21.0 °F 11.4 °F 17.1 °F 85% 30.30 in 10.0 mi WSW 8.1 mph - N/A   Clear
9:54 AM 24.1 °F 16.0 °F 18.0 °F 77% 30.33 in 10.0 mi SW 6.9 mph - N/A   Clear
10:54 AM 26.1 °F 16.8 °F 19.0 °F 75% 30.32 in 10.0 mi WSW 9.2 mph - N/A   Clear
11:54 AM 28.9 °F 19.8 °F 21.0 °F 72% 30.30 in 10.0 mi WSW 10.4 mph - N/A   Clear
12:54 PM 30.9 °F 23.5 °F 21.9 °F 69% 30.26 in 10.0 mi SW 8.1 mph - N/A   Clear
1:54 PM 33.1 °F 25.5 °F 23.0 °F 66% 30.24 in 10.0 mi WSW 9.2 mph - N/A   Clear
2:54 PM 35.1 °F 29.3 °F 23.0 °F 61% 30.22 in 10.0 mi WSW 6.9 mph - N/A   Clear
3:54 PM 35.1 °F 29.3 °F 21.9 °F 59% 30.21 in 10.0 mi SW 6.9 mph - N/A   Clear
4:54 PM 34.0 °F 27.2 °F 21.9 °F 61% 30.21 in 10.0 mi SW 8.1 mph - N/A   Clear
5:54 PM 30.9 °F 24.3 °F 21.0 °F 67% 30.20 in 10.0 mi SSW 6.9 mph - N/A   Clear
6:54 PM 30.0 °F 24.1 °F 21.0 °F 69% 30.21 in 10.0 mi SSW 5.8 mph - N/A   Clear
7:54 PM 28.9 °F 22.8 °F 19.9 °F 69% 30.19 in 10.0 mi South 5.8 mph - N/A   Clear
8:54 PM 28.9 °F 21.9 °F 19.9 °F 69% 30.17 in 10.0 mi South 6.9 mph - N/A   Clear
9:54 PM 28.0 °F 20.8 °F 19.0 °F 69% 30.16 in 10.0 mi South 6.9 mph - N/A   Clear
10:54 PM 28.9 °F 21.1 °F 19.0 °F 67% 30.13 in 10.0 mi South 8.1 mph - N/A   Clear
11:54 PM 28.0 °F 19.3 °F 19.0 °F 69% 30.12 in 10.0 mi South 9.2 mph - N/A   Clear